TimeCST,TemperatureF,Dew PointF,Humidity,Sea Level PressureIn,VisibilityMPH,Wind Direction,Wind SpeedMPH,Gust SpeedMPH,PrecipitationIn,Events,Conditions,WindDirDegrees,DateUTC
12:53 AM,25.0,19.0,78,30.25,10.0,NNW,9.2,-,N/A,,Clear,330,2011-11-09 06:53:00
1:53 AM,26.1,19.9,78,30.24,10.0,WNW,9.2,-,N/A,,Clear,300,2011-11-09 07:53:00
2:53 AM,24.1,19.9,84,30.26,10.0,NW,9.2,-,N/A,,Clear,320,2011-11-09 08:53:00
3:53 AM,30.2,23.0,75,30.21,10.0,NW,10.4,-,N/A,,Clear,310,2011-11-09 09:53:00
4:53 AM,30.9,21.9,69,30.27,10.0,NNW,10.4,-,N/A,,Clear,330,2011-11-09 10:53:00
5:53 AM,26.1,21.0,81,30.32,10.0,NW,9.2,-,N/A,,Clear,320,2011-11-09 11:53:00
6:53 AM,27.0,19.9,75,30.34,10.0,WNW,9.2,-,N/A,,Clear,300,2011-11-09 12:53:00
7:53 AM,30.0,21.0,69,30.36,10.0,NW,11.5,-,N/A,,Clear,320,2011-11-09 13:53:00
8:53 AM,36.0,21.9,57,30.37,10.0,NW,19.6,24.2,N/A,,Clear,310,2011-11-09 14:53:00
9:53 AM,39.9,21.9,49,30.39,10.0,NW,16.1,24.2,N/A,,Clear,320,2011-11-09 15:53:00
10:53 AM,45.0,19.9,37,30.39,10.0,NW,20.7,27.6,N/A,,Clear,320,2011-11-09 16:53:00
11:53 AM,46.0,18.0,33,30.39,10.0,NNW,21.9,34.5,N/A,,Clear,330,2011-11-09 17:53:00
12:53 PM,46.4,15.8,29,30.32,10.0,NNW,24.2,32.2,N/A,,Clear,330,2011-11-09 18:53:00
1:53 PM,46.9,15.1,28,30.37,10.0,NNW,21.9,34.5,N/A,,Clear,340,2011-11-09 19:53:00
2:53 PM,46.9,15.1,28,30.37,10.0,NNW,19.6,-,N/A,,Clear,330,2011-11-09 20:53:00
3:53 PM,46.0,15.1,29,30.36,10.0,NW,19.6,26.5,N/A,,Clear,310,2011-11-09 21:53:00
4:53 PM,43.0,16.0,34,30.36,10.0,NW,10.4,-,N/A,,Clear,320,2011-11-09 22:53:00
5:53 PM,35.1,16.0,46,30.38,10.0,WNW,6.9,-,N/A,,Clear,290,2011-11-09 23:53:00
6:53 PM,33.1,16.0,50,30.38,10.0,West,8.1,-,N/A,,Clear,270,2011-11-10 00:53:00
7:53 PM,30.9,15.1,52,30.38,10.0,NW,4.6,-,N/A,,Clear,310,2011-11-10 01:53:00
8:53 PM,26.1,14.0,60,30.38,10.0,WNW,4.6,-,N/A,,Clear,300,2011-11-10 02:53:00
9:53 PM,24.1,14.0,65,30.39,10.0,NNW,5.8,-,N/A,,Clear,330,2011-11-10 03:53:00
10:53 PM,21.9,12.9,68,30.38,10.0,WNW,3.5,-,N/A,,Clear,300,2011-11-10 04:53:00
11:53 PM,19.9,12.9,74,30.38,10.0,NW,5.8,-,N/A,,Clear,320,2011-11-10 05:53:00